TimeEST,TemperatureF,Dew PointF,Humidity,Sea Level PressureIn,VisibilityMPH,Wind Direction,Wind SpeedMPH,Gust SpeedMPH,PrecipitationIn,Events,Conditions,WindDirDegrees,DateUTC
12:54 AM,28.9,24.1,82,30.52,7.0,Calm,Calm,-,N/A,,Clear,0,2012-11-17 05:54:00
1:54 AM,28.9,25.0,85,30.52,6.0,Calm,Calm,-,N/A,,Clear,0,2012-11-17 06:54:00
2:54 AM,27.0,23.0,85,30.54,6.0,Calm,Calm,-,N/A,,Clear,0,2012-11-17 07:54:00
3:54 AM,27.0,23.0,85,30.55,4.0,Calm,Calm,-,N/A,,Clear,0,2012-11-17 08:54:00
4:54 AM,25.0,21.9,88,30.56,5.0,Calm,Calm,-,N/A,,Clear,0,2012-11-17 09:54:00
5:54 AM,26.1,21.9,84,30.58,5.0,Calm,Calm,-,N/A,,Clear,0,2012-11-17 10:54:00
6:54 AM,28.9,24.1,82,30.58,5.0,SE,3.5,-,N/A,,Haze,140,2012-11-17 11:54:00
7:54 AM,28.0,24.1,85,30.59,3.0,Calm,Calm,-,N/A,,Clear,0,2012-11-17 12:54:00
8:54 AM,32.0,28.0,85,30.60,3.0,Calm,Calm,-,N/A,,Clear,0,2012-11-17 13:54:00
9:54 AM,39.0,30.9,73,30.61,5.0,SE,4.6,-,N/A,,Haze,140,2012-11-17 14:54:00
10:54 AM,45.0,30.0,56,30.60,8.0,SE,6.9,-,N/A,,Clear,130,2012-11-17 15:54:00
11:54 AM,48.0,28.9,48,30.58,10.0,South,4.6,-,N/A,,Clear,180,2012-11-17 16:54:00
12:54 PM,50.0,32.0,50,30.56,10.0,SSE,8.1,-,N/A,,Clear,160,2012-11-17 17:54:00
1:54 PM,52.0,32.0,47,30.55,10.0,Calm,Calm,-,N/A,,Clear,0,2012-11-17 18:54:00
2:54 PM,54.0,32.0,43,30.54,10.0,SSE,5.8,-,N/A,,Clear,150,2012-11-17 19:54:00
3:54 PM,53.6,33.8,47,30.50,10.0,East,3.5,-,N/A,,Clear,100,2012-11-17 20:54:00
4:54 PM,50.0,30.9,48,30.53,10.0,ESE,4.6,-,N/A,,Clear,120,2012-11-17 21:54:00
5:54 PM,48.9,30.9,50,30.53,10.0,East,3.5,-,N/A,,Clear,90,2012-11-17 22:54:00
6:54 PM,39.2,30.2,70,30.50,9.0,ESE,3.5,-,N/A,,Clear,110,2012-11-17 23:54:00
7:54 PM,39.0,30.0,70,30.53,8.0,East,3.5,-,N/A,,Clear,90,2012-11-18 00:54:00
8:54 PM,42.1,30.0,62,30.53,8.0,ESE,5.8,-,N/A,,Clear,110,2012-11-18 01:54:00
9:54 PM,42.1,30.0,62,30.53,10.0,SE,6.9,-,N/A,,Clear,140,2012-11-18 02:54:00
10:54 PM,41.0,28.9,62,30.51,10.0,ESE,6.9,-,N/A,,Clear,110,2012-11-18 03:54:00
11:54 PM,39.9,30.0,68,30.51,10.0,ESE,6.9,-,N/A,,Clear,110,2012-11-18 04:54:00